| time (UTC) | temp F | wind direction | speed knots | gust knots | rain 1hr in | rain 24hr in | rain mn in | humidity % | barometer mb |
| 20260505112008 | 62 | 239 | 3.5 | 13.0 | 0.00 | 0.00 | 0.00 | 70 | 1001.7 |
| 20260505111552 | 62 | 250 | 4.3 | 13.0 | 0.00 | 0.00 | 0.00 | 70 | 1001.7 |
| 20260505111033 | 62 | 243 | 3.5 | 11.3 | 0.00 | 0.00 | 0.00 | 70 | 1001.6 |
| 20260505110512 | 62 | 233 | 4.3 | 9.6 | 0.00 | 0.00 | 0.00 | 69 | 1001.6 |
| 20260505102010 | 62 | 245 | 5.2 | 17.4 | 0.00 | 0.00 | 0.00 | 69 | 1000.5 |
| 20260505101552 | 62 | 258 | 5.2 | 17.4 | 0.00 | 0.00 | 0.00 | 70 | 1000.6 |
| 20260505101030 | 62 | 250 | 3.5 | 12.2 | 0.00 | 0.00 | 0.00 | 70 | 1000.4 |
| 20260505100510 | 62 | 263 | 6.1 | 13.0 | 0.00 | 0.00 | 0.00 | 70 | 1000.5 |
| 20260505100055 | 62 | 238 | 4.3 | 13.0 | 0.00 | 0.00 | 0.00 | 70 | 1000.4 |
| 20260505095511 | 62 | 194 | 2.6 | 12.2 | 0.00 | 0.00 | 0.00 | 71 | 1000.3 |
| 20260505095055 | 62 | 248 | 4.3 | 12.2 | 0.00 | 0.00 | 0.00 | 71 | 1000.4 |
| 20260505094536 | 62 | 227 | 2.6 | 11.3 | 0.00 | 0.00 | 0.00 | 71 | 1000.3 |
| 20260505094016 | 62 | 233 | 3.5 | 11.3 | 0.00 | 0.00 | 0.00 | 72 | 1000.2 |
| 20260505093600 | 61 | 257 | 3.5 | 9.6 | 0.00 | 0.00 | 0.00 | 72 | 999.9 |
| 20260505093042 | 61 | 225 | 2.6 | 11.3 | 0.00 | 0.00 | 0.00 | 73 | 1000.2 |
| 20260505092520 | 61 | 274 | 2.6 | 7.8 | 0.00 | 0.00 | 0.00 | 74 | 1000.1 |
| 20260505092104 | 61 | 234 | 2.6 | 8.7 | 0.00 | 0.00 | 0.00 | 74 | 999.8 |
| 20260505091545 | 60 | 217 | 1.7 | 11.3 | 0.00 | 0.00 | 0.00 | 75 | 999.8 |
| 20260505091023 | 60 | 228 | 4.3 | 11.3 | 0.00 | 0.00 | 0.00 | 75 | 999.9 |
| 20260505090503 | 60 | 254 | 2.6 | 7.0 | 0.00 | 0.00 | 0.00 | 76 | 999.9 |
| 20260505090050 | 60 | 217 | 0.9 | 7.0 | 0.00 | 0.00 | 0.00 | 76 | 999.8 |
| 20260505085514 | 60 | 212 | 0.9 | 6.1 | 0.00 | 0.00 | 0.00 | 76 | 999.8 |
| 20260505085053 | 60 | 208 | 0.0 | 13.0 | 0.00 | 0.00 | 0.00 | 76 | 999.9 |
| 20260505084533 | 59 | 239 | 3.5 | 13.0 | 0.00 | 0.00 | 0.00 | 77 | 999.9 |
| 20260505084015 | 59 | 196 | 0.9 | 8.7 | 0.00 | 0.00 | 0.00 | 78 | 1000.0 |
| 20260505083554 | 59 | 224 | 1.7 | 8.7 | 0.00 | 0.00 | 0.00 | 79 | 1000.1 |
| 20260505083035 | 59 | 244 | 0.0 | 4.3 | 0.00 | 0.00 | 0.00 | 79 | 1000.1 |
| 20260505082515 | 59 | 223 | 0.0 | 1.7 | 0.00 | 0.00 | 0.00 | 79 | 1000.3 |
| 20260505082059 | 59 | 223 | 0.0 | 2.6 | 0.00 | 0.00 | 0.00 | 79 | 1000.4 |
| 20260505081541 | 59 | 223 | 0.0 | 4.3 | 0.00 | 0.00 | 0.00 | 80 | 1000.5 |
| 20260505081019 | 59 | 223 | 0.9 | 4.3 | 0.00 | 0.00 | 0.00 | 80 | 1000.4 |
| 20260505080602 | 59 | 202 | 0.0 | 7.0 | 0.00 | 0.00 | 0.00 | 80 | 1000.4 |
| 20260505080020 | 59 | 301 | 0.9 | 7.0 | 0.00 | 0.00 | 0.00 | 80 | 1000.4 |
| 20260505075601 | 59 | 260 | 1.7 | 5.2 | 0.00 | 0.00 | 0.00 | 80 | 1000.4 |
| 20260505075041 | 59 | 189 | 1.7 | 5.2 | 0.00 | 0.00 | 0.00 | 81 | 1000.4 |
| 20260505074521 | 59 | 195 | 1.7 | 7.0 | 0.00 | 0.00 | 0.00 | 80 | 1000.4 |
| 20260505074001 | 59 | 258 | 1.7 | 7.0 | 0.00 | 0.00 | 0.00 | 80 | 1000.4 |
| 20260505073546 | 59 | 233 | 0.9 | 6.1 | 0.00 | 0.00 | 0.00 | 80 | 1000.4 |
| 20260505073042 | 60 | 228 | 0.9 | 6.1 | 0.00 | 0.00 | 0.00 | 80 | 1000.4 |
| 20260505072506 | 60 | 232 | 1.7 | 6.1 | 0.00 | 0.00 | 0.00 | 79 | 1000.3 |
| 20260505072045 | 60 | 216 | 1.7 | 4.3 | 0.00 | 0.00 | 0.00 | 79 | 1000.4 |
| 20260505071526 | 61 | 204 | 0.9 | 4.3 | 0.00 | 0.00 | 0.00 | 77 | 1000.4 |
| 20260505071006 | 61 | 162 | 0.0 | 7.8 | 0.00 | 0.00 | 0.00 | 76 | 1000.4 |
| 20260505070550 | 62 | 246 | 0.9 | 7.8 | 0.00 | 0.00 | 0.00 | 76 | 1000.4 |
| 20260505070012 | 62 | 205 | 0.9 | 7.8 | 0.00 | 0.00 | 0.00 | 75 | 1000.5 |
| 20260505065556 | 62 | 221 | 0.9 | 7.8 | 0.00 | 0.00 | 0.00 | 74 | 1000.5 |
| 20260505065035 | 63 | 234 | 2.6 | 7.8 | 0.00 | 0.00 | 0.00 | 75 | 1000.7 |
| 20260505064532 | 63 | 237 | 1.7 | 7.8 | 0.00 | 0.00 | 0.00 | 75 | 1000.6 |
| 20260505064100 | 63 | 230 | 1.7 | 7.0 | 0.00 | 0.00 | 0.00 | 74 | 1000.6 |
| 20260505063541 | 63 | 225 | 1.7 | 7.0 | 0.00 | 0.00 | 0.00 | 74 | 1000.6 |
| 20260505063020 | 63 | 218 | 1.7 | 13.9 | 0.00 | 0.00 | 0.00 | 73 | 1000.8 |
| 20260505062604 | 63 | 281 | 4.3 | 13.9 | 0.00 | 0.00 | 0.00 | 74 | 1000.9 |
| 20260505062043 | 62 | 241 | 1.7 | 13.0 | 0.00 | 0.00 | 0.00 | 77 | 1000.7 |
| 20260505061535 | 62 | 274 | 4.3 | 13.0 | 0.00 | 0.00 | 0.00 | 77 | 1000.8 |
| 20260505061001 | 62 | 235 | 3.5 | 16.5 | 0.00 | 0.00 | 0.00 | 76 | 1001.2 |
| 20260505060542 | 62 | 206 | 3.5 | 16.5 | 0.00 | 0.00 | 0.00 | 75 | 1001.4 |
| 20260505060003 | 62 | 284 | 4.3 | 18.2 | 0.00 | 0.00 | 0.00 | 75 | 1001.7 |
| 20260505055547 | 62 | 218 | 6.1 | 12.2 | 0.00 | 0.00 | 0.00 | 75 | 1001.6 |
| 20260505055027 | 62 | 231 | 4.3 | 17.4 | 0.00 | 0.00 | 0.00 | 75 | 1001.4 |
| 20260505054507 | 62 | 262 | 5.2 | 17.4 | 0.00 | 0.00 | 0.00 | 75 | 1001.1 |
| 20260505054052 | 62 | 279 | 4.3 | 13.9 | 0.00 | 0.00 | 0.00 | 75 | 1001.1 |
| 20260505053531 | 63 | 259 | 4.3 | 13.9 | 0.00 | 0.00 | 0.00 | 71 | 1001.4 |
| 20260505053010 | 63 | 225 | 7.8 | 13.9 | 0.00 | 0.00 | 0.00 | 70 | 1001.4 |
| 20260505052556 | 63 | 259 | 2.6 | 11.3 | 0.00 | 0.00 | 0.00 | 69 | 1001.6 |
| 20260505052035 | 63 | 223 | 4.3 | 10.4 | 0.00 | 0.00 | 0.00 | 68 | 1001.8 |
| 20260505051517 | 63 | 246 | 3.5 | 10.4 | 0.00 | 0.00 | 0.00 | 67 | 1001.9 |
| 20260505051059 | 64 | 246 | 2.6 | 10.4 | 0.00 | 0.00 | 0.00 | 66 | 1002.0 |
| 20260505050538 | 64 | 231 | 1.7 | 11.3 | 0.00 | 0.00 | 0.00 | 65 | 1002.0 |
| 20260505041514 | 64 | 240 | 4.3 | 15.6 | 0.00 | 0.00 | 0.00 | 66 | 1001.9 |
| 20260505041056 | 64 | 253 | 4.3 | 15.6 | 0.00 | 0.00 | 0.00 | 67 | 1002.0 |
| 20260505040536 | 64 | 206 | 2.6 | 7.8 | 0.00 | 0.00 | 0.00 | 67 | 1001.8 |
| 20260505040120 | 63 | 225 | 1.7 | 7.8 | 0.00 | 0.00 | 0.00 | 67 | 1001.8 |
| 20260505035541 | 63 | 224 | 2.6 | 7.0 | 0.00 | 0.00 | 0.00 | 67 | 1001.7 |
| 20260505035021 | 63 | 270 | 0.9 | 7.0 | 0.00 | 0.00 | 0.00 | 67 | 1001.7 |
| 20260505034505 | 63 | 210 | 0.9 | 4.3 | 0.00 | 0.00 | 0.00 | 67 | 1001.8 |
| 20260505034046 | 63 | 224 | 0.0 | 4.3 | 0.00 | 0.00 | 0.00 | 67 | 1001.7 |
| 20260505033526 | 63 | 224 | 0.9 | 5.2 | 0.00 | 0.00 | 0.00 | 67 | 1001.5 |
| 20260505033006 | 62 | 223 | 0.9 | 5.2 | 0.00 | 0.00 | 0.00 | 67 | 1001.5 |
| 20260505032550 | 62 | 260 | 0.0 | 4.3 | 0.00 | 0.00 | 0.00 | 67 | 1001.6 |
| 20260505032029 | 62 | 237 | 0.9 | 5.2 | 0.00 | 0.00 | 0.00 | 67 | 1001.5 |
| 20260505031529 | 62 | 200 | 0.0 | 5.2 | 0.00 | 0.00 | 0.00 | 67 | 1001.6 |
| 20260505031053 | 62 | 201 | 0.9 | 5.2 | 0.00 | 0.00 | 0.00 | 67 | 1001.7 |
| 20260505030536 | 63 | 213 | 0.0 | 5.2 | 0.00 | 0.00 | 0.00 | 66 | 1001.7 |
| 20260505030118 | 63 | 220 | 0.0 | 5.2 | 0.00 | 0.00 | 0.00 | 66 | 1001.7 |
| 20260505025541 | 63 | 225 | 0.0 | 7.0 | 0.00 | 0.00 | 0.00 | 65 | 1002.0 |
| 20260505025019 | 63 | 222 | 1.7 | 7.0 | 0.00 | 0.00 | 0.00 | 64 | 1002.2 |
| 20260505024603 | 63 | 229 | 0.0 | 7.8 | 0.00 | 0.00 | 0.00 | 64 | 1002.2 |
| 20260505024043 | 63 | 215 | 0.9 | 7.8 | 0.00 | 0.00 | 0.00 | 63 | 1002.2 |
| 20260505023523 | 64 | 221 | 0.9 | 7.8 | 0.00 | 0.00 | 0.00 | 61 | 1002.2 |
| 20260505023006 | 64 | 237 | 2.6 | 7.8 | 0.00 | 0.00 | 0.00 | 60 | 1002.3 |
| 20260505022548 | 64 | 210 | 2.6 | 9.6 | 0.00 | 0.00 | 0.00 | 59 | 1002.3 |
| 20260505022028 | 65 | 214 | 1.7 | 9.6 | 0.00 | 0.00 | 0.00 | 57 | 1002.3 |
| 20260505021511 | 65 | 232 | 1.7 | 9.6 | 0.00 | 0.00 | 0.00 | 55 | 1002.2 |
| 20260505021052 | 66 | 236 | 0.9 | 12.2 | 0.00 | 0.00 | 0.00 | 55 | 1002.3 |
| 20260505020531 | 66 | 227 | 6.1 | 13.9 | 0.00 | 0.00 | 0.00 | 53 | 1002.5 |
| 20260505020116 | 66 | 187 | 4.3 | 17.4 | 0.00 | 0.00 | 0.00 | 51 | 1002.5 |
| 20260505015538 | 66 | 243 | 2.6 | 17.4 | 0.00 | 0.00 | 0.00 | 50 | 1002.4 |
| 20260505015018 | 66 | 221 | 0.9 | 5.2 | 0.00 | 0.00 | 0.00 | 49 | 1002.3 |
| 20260505014610 | 66 | 219 | 0.0 | 4.3 | 0.00 | 0.00 | 0.00 | 49 | 1002.2 |
| 20260505014041 | 66 | 219 | 0.0 | 4.3 | 0.00 | 0.00 | 0.00 | 48 | 1002.1 |
| 20260505013521 | 66 | 216 | 0.0 | 3.5 | 0.00 | 0.00 | 0.00 | 48 | 1002.0 |
| 20260505013001 | 66 | 202 | 0.0 | 5.2 | 0.00 | 0.00 | 0.00 | 47 | 1002.1 |
| 20260505012546 | 66 | 200 | 0.9 | 5.2 | 0.00 | 0.00 | 0.00 | 47 | 1002.1 |
| 20260505012026 | 66 | 262 | 0.0 | 3.5 | 0.00 | 0.00 | 0.00 | 47 | 1002.1 |
| 20260505011505 | 66 | 262 | 0.0 | 3.5 | 0.00 | 0.00 | 0.00 | 46 | 1002.0 |
| 20260505011048 | 67 | 264 | 0.0 | 3.5 | 0.00 | 0.00 | 0.00 | 46 | 1002.0 |
| 20260505010528 | 67 | 264 | 0.0 | 3.5 | 0.00 | 0.00 | 0.00 | 45 | 1001.9 |
| 20260505010112 | 67 | 265 | 0.0 | 3.5 | 0.00 | 0.00 | 0.00 | 45 | 1002.0 |
| 20260505005534 | 67 | 265 | 0.0 | 4.3 | 0.00 | 0.00 | 0.00 | 44 | 1002.0 |
| 20260505005015 | 67 | 265 | 0.0 | 7.0 | 0.00 | 0.00 | 0.00 | 43 | 1002.0 |
| 20260505004600 | 67 | 249 | 0.9 | 7.0 | 0.00 | 0.00 | 0.00 | 43 | 1002.0 |
| 20260505004042 | 68 | 246 | 0.0 | 6.1 | 0.00 | 0.00 | 0.00 | 43 | 1002.0 |
| 20260505003518 | 68 | 246 | 1.7 | 7.0 | 0.00 | 0.00 | 0.00 | 42 | 1002.0 |
| 20260505003103 | 68 | 262 | 0.0 | 9.6 | 0.00 | 0.00 | 0.00 | 41 | 1002.0 |
| 20260505002543 | 68 | 246 | 1.7 | 9.6 | 0.00 | 0.00 | 0.00 | 41 | 1002.2 |
| 20260505002023 | 69 | 248 | 2.6 | 7.8 | 0.00 | 0.00 | 0.00 | 40 | 1002.3 |
| 20260505001503 | 69 | 225 | 3.5 | 7.8 | 0.00 | 0.00 | 0.00 | 39 | 1002.2 |
| 20260505001050 | 69 | 204 | 0.9 | 7.8 | 0.00 | 0.00 | 0.00 | 39 | 1002.3 |
| 20260505000526 | 69 | 253 | 3.5 | 7.8 | 0.00 | 0.00 | 0.00 | 38 | 1002.4 |
| 20260505000118 | 70 | 250 | 2.6 | 10.4 | 0.00 | 0.00 | 0.00 | 37 | 1002.3 |
| 20260504235534 | 70 | 230 | 4.3 | 10.4 | 0.00 | 0.00 | 0.00 | 37 | 1002.3 |
| 20260504235013 | 70 | 263 | 4.3 | 12.2 | 0.00 | 0.00 | 0.00 | 37 | 1002.3 |
| 20260504234556 | 70 | 258 | 3.5 | 12.2 | 0.00 | 0.00 | 0.00 | 37 | 1002.3 |
| 20260504234036 | 70 | 281 | 5.2 | 10.4 | 0.00 | 0.00 | 0.00 | 36 | 1002.4 |
| 20260504233517 | 71 | 251 | 4.3 | 12.2 | 0.00 | 0.00 | 0.00 | 37 | 1002.4 |
| 20260504233102 | 71 | 247 | 3.5 | 12.2 | 0.00 | 0.00 | 0.00 | 37 | 1002.4 |
| 20260504232539 | 71 | 243 | 4.3 | 9.6 | 0.00 | 0.00 | 0.00 | 37 | 1002.5 |
| 20260504232019 | 71 | 262 | 2.6 | 8.7 | 0.00 | 0.00 | 0.00 | 38 | 1002.4 |
| 20260504231602 | 71 | 241 | 2.6 | 8.7 | 0.00 | 0.00 | 0.00 | 37 | 1002.4 |
| 20260504231041 | 72 | 224 | 4.3 | 12.2 | 0.00 | 0.01 | 0.00 | 36 | 1002.4 |
| 20260504230520 | 72 | 250 | 6.1 | 12.2 | 0.00 | 0.01 | 0.00 | 36 | 1002.4 |
| 20260504230109 | 72 | 260 | 3.5 | 9.6 | 0.00 | 0.01 | 0.00 | 38 | 1002.4 |
| 20260504225526 | 72 | 246 | 4.3 | 13.0 | 0.00 | 0.01 | 0.00 | 38 | 1002.4 |
| 20260504225010 | 72 | 233 | 4.3 | 13.0 | 0.00 | 0.01 | 0.00 | 40 | 1002.5 |
| 20260504224550 | 72 | 232 | 2.6 | 11.3 | 0.00 | 0.01 | 0.00 | 41 | 1002.4 |
| 20260504224030 | 72 | 256 | 3.5 | 12.2 | 0.00 | 0.01 | 0.00 | 41 | 1002.4 |
| 20260504223510 | 72 | 266 | 3.5 | 12.2 | 0.00 | 0.01 | 0.00 | 41 | 1002.5 |
| 20260504223101 | 72 | 229 | 4.3 | 12.2 | 0.00 | 0.01 | 0.00 | 42 | 1002.6 |
| 20260504222535 | 72 | 245 | 7.0 | 12.2 | 0.00 | 0.01 | 0.00 | 42 | 1002.7 |
| 20260504222014 | 72 | 274 | 5.2 | 12.2 | 0.00 | 0.01 | 0.00 | 43 | 1002.6 |
| 20260504221605 | 71 | 214 | 5.2 | 12.2 | 0.00 | 0.01 | 0.00 | 43 | 1002.6 |
| 20260504221039 | 71 | 245 | 4.3 | 13.0 | 0.00 | 0.01 | 0.00 | 43 | 1002.6 |
| 20260504220520 | 71 | 247 | 1.7 | 13.0 | 0.00 | 0.01 | 0.00 | 42 | 1002.5 |
| 20260504220104 | 71 | 202 | 4.3 | 13.0 | 0.00 | 0.01 | 0.00 | 43 | 1002.7 |
| 20260504215524 | 72 | 214 | 6.1 | 13.0 | 0.00 | 0.01 | 0.00 | 42 | 1002.8 |
| 20260504215004 | 72 | 250 | 4.3 | 13.9 | 0.00 | 0.01 | 0.00 | 42 | 1002.7 |
| 20260504214547 | 72 | 250 | 6.1 | 13.9 | 0.00 | 0.01 | 0.00 | 42 | 1002.7 |
| 20260504214028 | 72 | 244 | 4.3 | 12.2 | 0.00 | 0.01 | 0.00 | 42 | 1002.7 |
| 20260504213508 | 72 | 219 | 3.5 | 19.1 | 0.00 | 0.01 | 0.00 | 42 | 1002.7 |
| 20260504213051 | 72 | 275 | 6.1 | 19.1 | 0.00 | 0.01 | 0.00 | 41 | 1002.7 |
| 20260504212534 | 72 | 240 | 6.1 | 13.0 | 0.00 | 0.01 | 0.00 | 40 | 1002.6 |
| 20260504212011 | 72 | 234 | 4.3 | 10.4 | 0.00 | 0.01 | 0.00 | 41 | 1002.6 |
| 20260504211603 | 72 | 216 | 4.3 | 17.4 | 0.00 | 0.01 | 0.00 | 41 | 1002.6 |
| 20260504211035 | 72 | 260 | 3.5 | 15.6 | 0.00 | 0.01 | 0.00 | 42 | 1002.5 |
| 20260504210515 | 72 | 258 | 5.2 | 15.6 | 0.00 | 0.01 | 0.00 | 41 | 1002.6 |
| 20260504210059 | 72 | 246 | 5.2 | 13.9 | 0.00 | 0.01 | 0.00 | 40 | 1002.5 |
| 20260504205523 | 72 | 248 | 5.2 | 13.9 | 0.00 | 0.01 | 0.00 | 41 | 1002.5 |
| 20260504205106 | 72 | 254 | 3.5 | 10.4 | 0.00 | 0.01 | 0.00 | 41 | 1002.5 |
| 20260504204544 | 72 | 262 | 3.5 | 13.9 | 0.00 | 0.01 | 0.00 | 41 | 1002.5 |
| 20260504204024 | 72 | 216 | 5.2 | 12.2 | 0.00 | 0.01 | 0.00 | 41 | 1002.6 |
| 20260504203504 | 72 | 238 | 3.5 | 17.4 | 0.00 | 0.01 | 0.00 | 41 | 1002.6 |
| 20260504203059 | 71 | 223 | 5.2 | 20.9 | 0.00 | 0.01 | 0.00 | 40 | 1002.8 |
| 20260504202527 | 71 | 249 | 4.3 | 20.9 | 0.00 | 0.01 | 0.00 | 41 | 1002.8 |
| 20260504202012 | 72 | 229 | 5.2 | 16.5 | 0.00 | 0.01 | 0.00 | 41 | 1002.7 |
| 20260504201552 | 72 | 269 | 3.5 | 16.5 | 0.00 | 0.01 | 0.00 | 41 | 1002.9 |
| 20260504201031 | 71 | 273 | 3.5 | 13.9 | 0.00 | 0.01 | 0.00 | 41 | 1002.9 |
| 20260504200511 | 71 | 204 | 5.2 | 20.0 | 0.00 | 0.01 | 0.00 | 41 | 1003.0 |
| 20260504200056 | 71 | 252 | 7.8 | 20.0 | 0.00 | 0.01 | 0.00 | 41 | 1002.9 |
| 20260504195517 | 71 | 250 | 6.1 | 17.4 | 0.00 | 0.01 | 0.00 | 41 | 1003.0 |
| 20260504195103 | 71 | 219 | 5.2 | 19.1 | 0.00 | 0.01 | 0.00 | 42 | 1003.0 |
| 20260504194542 | 71 | 249 | 7.8 | 19.1 | 0.00 | 0.01 | 0.00 | 41 | 1003.2 |
| 20260504194022 | 71 | 275 | 7.0 | 13.9 | 0.00 | 0.01 | 0.00 | 42 | 1003.1 |
| 20260504193606 | 71 | 258 | 4.3 | 13.0 | 0.00 | 0.01 | 0.00 | 44 | 1003.4 |
| 20260504193044 | 71 | 204 | 5.2 | 13.9 | 0.00 | 0.01 | 0.00 | 44 | 1003.5 |
| 20260504192524 | 71 | 256 | 6.1 | 13.9 | 0.00 | 0.01 | 0.00 | 44 | 1003.6 |
| 20260504192004 | 71 | 217 | 4.3 | 9.6 | 0.00 | 0.01 | 0.00 | 46 | 1003.7 |
| 20260504191550 | 70 | 230 | 3.5 | 15.6 | 0.00 | 0.01 | 0.00 | 47 | 1003.7 |
| 20260504191028 | 70 | 196 | 3.5 | 15.6 | 0.00 | 0.01 | 0.00 | 48 | 1003.8 |
| 20260504190515 | 69 | 263 | 5.2 | 20.9 | 0.00 | 0.01 | 0.00 | 48 | 1003.9 |
| 20260504185514 | 69 | 169 | 7.0 | 13.0 | 0.00 | 0.01 | 0.00 | 48 | 1004.1 |
| 20260504185058 | 69 | 241 | 4.3 | 13.0 | 0.00 | 0.01 | 0.00 | 48 | 1004.2 |
| 20260504184538 | 69 | 228 | 3.5 | 13.9 | 0.00 | 0.01 | 0.00 | 50 | 1004.2 |
| 20260504184020 | 69 | 270 | 5.2 | 16.5 | 0.00 | 0.01 | 0.00 | 50 | 1004.3 |
| 20260504183604 | 68 | 216 | 4.3 | 9.6 | 0.00 | 0.01 | 0.00 | 50 | 1004.3 |
| 20260504183042 | 68 | 227 | 3.5 | 11.3 | 0.00 | 0.01 | 0.00 | 52 | 1004.4 |
| 20260504182522 | 68 | 182 | 5.2 | 13.9 | 0.00 | 0.01 | 0.00 | 51 | 1004.4 |
| 20260504182002 | 67 | 201 | 5.2 | 13.9 | 0.00 | 0.01 | 0.00 | 51 | 1004.6 |
| 20260504181552 | 67 | 205 | 3.5 | 11.3 | 0.00 | 0.01 | 0.00 | 53 | 1004.7 |
| 20260504181025 | 67 | 235 | 3.5 | 15.6 | 0.00 | 0.01 | 0.00 | 53 | 1004.8 |
| 20260504180504 | 67 | 272 | 7.8 | 15.6 | 0.00 | 0.01 | 0.00 | 51 | 1004.9 |
| 20260504180048 | 67 | 231 | 3.5 | 12.2 | 0.00 | 0.01 | 0.00 | 53 | 1004.9 |
| 20260504175516 | 66 | 211 | 6.1 | 12.2 | 0.00 | 0.01 | 0.00 | 52 | 1004.9 |
| 20260504175055 | 66 | 212 | 3.5 | 12.2 | 0.00 | 0.01 | 0.00 | 53 | 1004.9 |
| 20260504174535 | 66 | 177 | 5.2 | 12.2 | 0.00 | 0.01 | 0.00 | 53 | 1004.9 |
| 20260504174015 | 65 | 217 | 2.6 | 11.3 | 0.00 | 0.01 | 0.00 | 55 | 1004.9 |
| 20260504173559 | 65 | 217 | 5.2 | 15.6 | 0.00 | 0.01 | 0.00 | 54 | 1005.2 |
| 20260504173038 | 65 | 266 | 3.5 | 15.6 | 0.00 | 0.01 | 0.00 | 54 | 1005.2 |
| 20260504172518 | 65 | 258 | 4.3 | 12.2 | 0.00 | 0.01 | 0.00 | 54 | 1005.2 |
| 20260504172102 | 65 | 206 | 6.1 | 12.2 | 0.00 | 0.01 | 0.00 | 54 | 1005.3 |
| 20260504171542 | 64 | 266 | 3.5 | 12.2 | 0.00 | 0.01 | 0.00 | 55 | 1005.3 |
| 20260504171023 | 64 | 255 | 3.5 | 12.2 | 0.00 | 0.01 | 0.00 | 55 | 1005.2 |
| 20260504170503 | 64 | 233 | 3.5 | 12.2 | 0.00 | 0.01 | 0.00 | 54 | 1005.4 |
| 20260504151015 | 61 | 250 | 6.1 | 20.9 | 0.00 | 0.01 | 0.00 | 55 | 1006.0 |
| 20260504150600 | 61 | 208 | 7.0 | 20.9 | 0.00 | 0.01 | 0.00 | 55 | 1006.1 |
| 20260504141010 | 59 | 178 | 7.8 | 19.1 | 0.00 | 0.01 | 0.00 | 56 | 1006.2 |
| 20260504140554 | 59 | 269 | 5.2 | 13.9 | 0.00 | 0.01 | 0.00 | 57 | 1006.2 |
| 20260504130550 | 57 | 239 | 3.5 | 16.5 | 0.00 | 0.01 | 0.00 | 59 | 1006.5 |